Location: ??????????
(54.4061°N, 22.6114°E)
Time: 01:43:09
(UTC+00:00)

Starlink (trailer) - Pass Details

Date: 23 October 2019
Orbit: 549 x 551 km, 53.0° (Epoch: 16 November)

Event Time Altitude Azimuth Distance (km) Brightness Sun altitude
Rises 16:47:12 0° 274° (W) 2,720 9.1 -14.1°
Reaches altitude 10° 16:49:27 10° 272° (W) 1,826 7.7 -14.5°
Maximum altitude 16:53:34 69° 189° (S) 591 3.7 -15.1°
Enters shadow 16:55:43 27° 112° (ESE) 1,077 4.5 -15.4°
